Showing default

GALAXY 28 (IA 8), 28702

Orbit data source: Space-Track

GALAXY 28 (IA 8), 28702 is a payload satellite owned by Intelsat Ltd (US) (US) in GEO that was launched on Thu, 23 Jun 2005 UTC via a ZENIT-3SL launch vehicle from the Sea Launch (SEAL). Payload-class satellites include a variety of spacecraft equipped with specific instruments for various scientific and technological missions. These include communications satellites like Starlink; space stations such as the ISS; scientific satellites like the Hubble; Earth observation satellites from companies like Planet Labs, Umbra, and HawkEye 360; GPS; miniature CubeSats for education and research; and military/defense satellites.

Loading next visibility...
Identifier
28702, 2005-022A
Orbit
GEO
Last TLE update
16 hours ago
Origin
Manufacturer
SS/Loral
Mission
Operational Commercial Communications
Bus & Motor
SSL-1300, R-4D-11-164
Mass
5,493 kg wet, ~3,000 kg dry
Launch date (UTC)
2005-06-23 (20 years ago)
Launch vehicle
ZENIT-3SL
Launch site
Sea Launch (SEAL)
Object type
Payload
Rocket body
Debris
Shape & HBR
Box + 2 Pan, 2.6 m
Radar Cross Section
38.593 m², Large (>1 m²)

Expand to show TLE details & history

TLE from 16 hours ago
0 GALAXY 28 (IA 8)
1 28702U 05022A   25132.86258116 -.00000170  00000-0  00000-0 0  9997
2 28702   2.2675  83.9209 0001175 333.2046  35.5743  1.00271288 47972
Epoch: 2025-05-12T20:42Z
Definitive object data (Epoch: 2025-05-12T20:42:07.012Z)
Latitude
0.35387°
Longitude
-88.70882°
Altitude
35,782.132 km
Speed
3.075 km/s
True Right ascension
06h 10m 45s
True Declination
0° 21' 13"
Sunlit
Object was in daylight at TLE epoch
Visualization TLE readout
Latitude
-2.12517°
Longitude
153.06054°
Altitude
35,785.929 km
Speed
3.075 km/s
Apparent Right ascension
22h 26m 17s
Apparent Declination
-8° 33' 05"
Sunlit
Object is in daylight
Visualization observer readout
Local Sidereal Time
21:12:18
Azimuth
156.336° SSE
Elevation
38.6°
Doppler factor
1
Orbital elements
Apogee altitude
35,792.757 km
Perigee altitude
35,782.848 km
Semi-major axis
42,165.939 km
Eccentricity
0.0001175
Inclination
2.2675°
RAAN
83.9209°
Arg. of periapsis
333.2046°
True anomaly
35.58213°
Mean anomaly
35.5743°
Eccentric anomaly
35.57822°
Mean motion
0.25067 °/min
BSTAR
Unknown
Orbital period
1436.16 mins
Loading historical data...
28702 neighbors
Loading maneuver chart data...
Loading SW <> Apogee altitude chart data...
Loading historical data...
Loading historical data...
Loading historical data...
Loading historical data...
Loading historical data...
Loading historical data...
Loading historical data...
Other satellites on launch #22 in the year 2005 (2005-06-23 UTC)

GALAXY 28 (IA 8) Visibility forecast

Observer location: undefined°, undefined°

Span
Click to sort rows by Start time (UTC) header in descending order
Start Az.
Max El. time (UTC)
Max El. Az.
Max El.
End time (UTC)
End Az.
1440 mins2025-05-13 12:46:40.068Z156.344° SSE2025-05-14 02:05:40.068Z154.216° SSE34.38°2025-05-14 12:46:40.068Z156.354° SSE
|